Showing default

KUIPER-00483, 68878

Orbit data source: Space-Track

KUIPER-00483, 68878 is an American payload satellite in LEO that was launched on Tue, 28 Apr 2026 UTC launched from the Air Force Eastern Test Range (AFETR). Payload-class satellites include a variety of spacecraft equipped with specific instruments for various scientific and technological missions. These include communications satellites like Starlink; space stations such as the ISS; scientific satellites like the Hubble; Earth observation satellites from companies like Planet Labs, Umbra, and HawkEye 360; GPS; miniature CubeSats for education and research; and military/defense satellites.

Loading next visibility...
Identifier
68878, 2026-095Q
Orbit
LEO
Country
Flag of USUS
Related business
None
Manufacturer
Unknown
Mission
Operational spacecraft
Bus & Motor
Unknown
Mass
Unknown
Launch date (UTC)
2026-04-28 (4 days ago)
Launch vehicle
Unknown
Launch site
Air Force Eastern Test Range (AFETR)
Object type
Payload
Rocket body
Debris
Shape & HBR
Unknown
Radar Cross Section
RCS unknown

Expand to show TLE details & history
Last TLE update: 7 hours ago

TLE from 7 hours ago
0 KUIPER-00483
1 68878U 26095Q   26122.16670139 -.00003845  00000-0 -97675-4 0  9995
2 68878  51.8718 104.9594 0010990 136.3090  44.6392 15.35749927  1306
Epoch: 2026-05-02T04:00Z
TLE epoch observation values (Epoch: 2026-05-02T04:00:03.000Z)
Latitude
-0.8986°
Longitude
5.55987°
Altitude
454.235 km
Speed
7.644 km/s
True Right ascension
19h 02m 38s
True Declination
0° 53' 35"
Sunlit
Object was in full shadow at epoch
Visualization orbit readout
Latitude
Unknown
Longitude
Unknown
Altitude
Unknown
Speed
Unknown
Apparent Right ascension
Unknown
Apparent Declination
Unknown
Sunlit
N/A
Visualization observer readout
Local Sidereal Time
18:39:33
Azimuth
Unknown
Elevation
Unknown
Doppler factor
Unknown
Orbital elements
Apogee altitude
466.675 km
Perigee altitude
451.647 km
Semi-major axis
6,837.298 km
Eccentricity
0.0011
Inclination
51.8718°
RAAN
104.9594°
Arg. of periapsis
136.309°
True anomaly
44.72777°
Mean anomaly
44.6392°
Eccentric anomaly
44.68348°
Mean motion
3.83899 °/min
Orbital period
93.77 mins
BSTAR
-0.000097675
Loading maneuver chart data...
Computing Atmospheric mass density...
Loading historical data...
Loading historical data...
Loading historical data...
Loading historical data...
Loading historical data...
Loading historical data...
Loading historical data...

Documentation

Showing up to 5 results
|